Home   Weather   Lancaster   Past weeks

Flag for USA Past Weather in Lancaster, California, USA — Yesterday and Last 2 Weeks

Now
71 °F

Sunny.


Feels Like: 72 °F
Forecast: 45 / 74 °F
Wind: 23 mph from Northeast

Location: Lancaster / Fox Field

Current Time: Apr 29, 2017 at 12:55:00 pm

Latest Report: Apr 29, 2017 at 11:56 am


Visibility: 10 mi

Pressure: 30.12 "Hg (27.71 "Hg at 718m altitude)

Humidity: 10%

Dew Point: 11 °F

Location of LancasterLocation

Past Weather in Lancaster — Graph

°F

Lancaster Temperature Yesterday

Maximum temperature yesterday: 72 °F (at 1:56 pm)
Minimum temperature yesterday: 49 °F (at 5:56 am)
Average temperature yesterday: 62 °F

High & Low Weather Summary for the Past Weeks

 TemperatureHumidityPressure
High89 °F (Apr 22, 3:56 pm)83% (Apr 17, 10:56 pm)30.16 "Hg (Apr 17, 10:56 pm)
Low37 °F (Apr 15, 6:56 am)9% (Apr 22, 3:56 pm)29.79 "Hg (Apr 27, 1:56 pm)
Average62 °F42%29.96 "Hg
* Reported Apr 14 10:56 am — Apr 29 10:56 am, Lancaster, Weather by CustomWeather, © 2017

Note: Actual official high and low records may vary slightly from our data, if they occured in-between our weather recording intervals... More about our weather records

Advertising

Lancaster Weather History for the Previous 24 Hours

Scroll right to see more
 ConditionsComfort  
Time TempWeatherWind HumidityBarometerVisibility
10:56 am
Sat, Apr 29
68 °FSunny.23 mph11%30.13 "Hg10 mi
9:56 am64 °FSunny.15 mph13%30.13 "Hg10 mi
8:56 am61 °FSunny.18 mph15%30.12 "Hg10 mi
7:56 am57 °FSunny.16 mph17%30.12 "Hg10 mi
6:56 am47 °FSunny.6 mph30%30.11 "Hg10 mi
5:56 am44 °FClear.5 mph31%30.10 "Hg10 mi
4:56 am44 °FClear.5 mph34%30.08 "Hg10 mi
3:56 am47 °FClear.8 mph30%30.06 "Hg10 mi
2:56 am44 °FClear.6 mph35%30.06 "Hg10 mi
1:56 am49 °FClear.No wind25%30.03 "Hg10 mi
12:56 am49 °FClear.6 mph26%30.02 "Hg10 mi
11:56 pm
Fri, Apr 28
50 °FClear.5 mph32%30.00 "Hg10 mi
10:56 pm56 °FClear.6 mph22%29.96 "Hg10 mi
9:56 pm59 °FClear.10 mph29%29.92 "Hg10 mi
8:56 pm61 °FClear.12 mph29%29.88 "Hg10 mi
7:56 pm62 °FClear.22 mph25%29.84 "Hg10 mi
6:56 pm65 °FSunny.28 mph21%29.82 "Hg10 mi
5:56 pm68 °FSunny.30 mph20%29.81 "Hg10 mi
5:05 pm70 °FSunny.23 mph18%29.83 "Hg10 mi
4:56 pm70 °FSunny.24 mph18%29.80 "Hg10 mi
3:56 pm72 °FSunny.24 mph14%29.80 "Hg10 mi
2:56 pm70 °FSunny.14 mph19%29.83 "Hg10 mi
1:56 pm72 °FSunny.18 mph18%29.83 "Hg10 mi
12:56 pm71 °FSunny.17 mph19%29.84 "Hg10 mi
Weather by CustomWeather, © 2017

See weather overviewHow to use our weather pages